STARLINK-4540 (53428 NORAD) Tracking and Keplerian Element Data

This shows tracking and keplerian element data for the satellite.

Feedback or suggestion? Click here.




ElementValue
Catalog53428
NameSTARLINK-4540
Epoch Orbit130
Epoch Day269.91667824
Epoch Year2022
RAAN11.8605
Inclination53.2165
Eccentricity0.0002774
Argument of Perigee18.8162
Mean Anonmoly73.4105
Mean Motion15.73252083
Decay Rate-0.00079886
L11 53428U 22097AS 22269.91667824 -.00079886 00000+0 -56876-3 0 9990
L22 53428 53.2165 11.8605 0002774 18.8162 73.4105 15.73252083 1303

Live tracking and technical data element details for STARLINK-4540 (NORAD 53428). STARLINK-4540 can be tracked NOW for your location showing map with azimuth and elevation plus other details from your city location.

Track the satellite on the map from your city or location and see movement details for azimuth, elevation, latitude, longitude, range, height, and movement on the map or in text.







IsCatalogInMostPopularTable: catalog: 53428, numindb: 4
Update: records affected: 1



GetName: 53428 STARLINK-4540

Hit Count: updated at: Thu, 29 Sep 2022 10:14:59 GMT